CHINASAT 6C (ZX 6C)

Last updated on Oct. 26, 2020, 5:52 a.m. UTC

1 44067U 19012A   20299.89055318 -.00000349  00000-0  00000-0 0  9992
2 44067   0.0821 262.0430 0002998 341.9699 241.3481  1.00272547  6074
UTC
Height (km)
Latitude
Longitude
Inclination
Orbital Period
UTC large
Height (km)
Speed (km/s)
/
Latitude / Longitude
Inclination (degrees)
Orbital Period (minutes)
Azimuth
Elevation
Range (km)
Doppler Factor
iOS Compass Heading
iOS Angle

Next 30 passes for location: Hong Kong

Rise time Rise Azimuth (degrees) Set time Set Azimuth (degrees) Duration Max altitude (degrees)

No matching passes for this satellites